Weather in Pallasovka

Russia / Volgograd Oblast     50°03′00″N   46°52′49″E
temp.,
°C
wind,
m/s
gust,
m/s
humid.,
%
clouds,
%
prec.,
mm/h
press.,
hPa
HPBL,
m
21 june, mon
mon2100:00+22ene45450 0.0 102066
03:00+20ene476142 0.0 102193
06:00+23e35600 0.0 1021162
09:00+29e44425 0.0 1021789
12:00+32ene333022 0.0 10202048
15:00+33ene4328100 0.0 10192397
18:00+31ne4535100 0.0 1019221
21:00+26ne464440 0.0 101969
22 june, tue
tue2200:00+24ne59509 0.0 1019132
03:00+24e47505 0.0 1019106
06:00+25e49453 0.0 1020230
09:00+32ese682824 0.0 1020879
12:00+35ese662735 0.0 10202324
15:00+35e66234 0.0 10193097
18:00+32ene5830100 0.0 1018281
21:00+27ene51038100 0.0 1019155
23 june, wed
wed2300:00+25ene593667 0.0 1019127
03:00+24e5114496 0.0 1019155
06:00+26e511474 0.0 1019268
09:00+32ese56285 0.0 1019658
12:00+36ese34215 0.0 10182104
15:00+37ene3418100 0.0 10173631
18:00+34ne462998 0.0 1016151
21:00+28ene4839100 0.0 1018126
24 june, thu
thu2400:00+25ene51348100 0.0 1018253
03:00+24ene5115740 0.0 1018203
06:00+27e48525 0.0 1018226
09:00+32ene56374 0.0 1018940
12:00+35e54295 0.0 10182195
15:00+36ene422610 0.0 10173014
18:00+34ne57355 0.0 1016517
21:00+27ne510515 0.1 1017174
25 june, fri
fri2500:00+25ne44545 0.0 101657
03:00+23ne356925 0.0 101674
06:00+25nne4561100 0.0 1017163
09:00+31nne444224 0.0 1016721
12:00+34n223297 0.0 10151545
15:00+35nnw452947 0.0 10142430
18:00+31n584129 0.0 1014270
21:00+27nne475647 0.0 1013126